GW6618 Weather Reports


Display with metric or nautical units.
time (UTC)temp
F
wind
direction
speed
MPH
gust
MPH
rain 1hr
in
rain 24hr
in
rain mn
in
humidity
%
barometer
mb
20260504141304 58 323 8.0 17.0 0.00 0.00 0.00 43 999.1
20260504140805 58 335 6.0 16.0 0.00 0.00 0.00 43 999.0
20260504140304 58 319 6.0 12.0 0.00 0.00 0.00 43 998.9
20260504130304 59 321 7.0 16.0 0.00 0.00 0.00 47 997.9
20260504120305 60 229 6.0 10.0 0.00 0.00 0.00 43 997.1
20260504100304 57 208 8.0 12.0 0.00 0.00 0.00 44 996.6
20260504081804 56 211 5.0 10.0 0.00 0.00 0.00 43 998.4
20260504081305 56 208 5.0 10.0 0.00 0.00 0.00 43 998.4
20260504080805 56 207 5.0 8.0 0.00 0.00 0.00 43 998.7
20260504080304 56 212 6.0 9.0 0.00 0.00 0.00 43 998.7
20260504070305 58 237 5.0 10.0 0.00 0.00 0.00 41 999.7
20260504050304 55 201 2.0 5.0 0.00 0.00 0.00 47 1002.1
20260504044803 56 212 2.0 2.0 0.00 0.00 0.00 47 1002.3
20260504043804 56 212 1.0 2.0 0.00 0.00 0.00 46 1002.5
20260504043305 56 212 1.0 1.0 0.00 0.00 0.00 45 1002.7
20260504042805 56 212 1.0 2.0 0.00 0.00 0.00 45 1002.7
20260504042306 56 212 0.0 1.0 0.00 0.00 0.00 45 1002.8
20260504041804 56 212 0.0 2.0 0.00 0.00 0.00 46 1003.0
20260504040804 56 236 2.0 2.0 0.00 0.00 0.00 46 1003.3
20260504035804 56 236 1.0 2.0 0.00 0.00 0.00 45 1003.5
20260504035305 56 236 1.0 2.0 0.00 0.00 0.00 45 1003.7
20260504034304 56 236 0.0 0.0 0.00 0.00 0.00 43 1003.8
20260504033804 57 236 0.0 0.0 0.00 0.00 0.00 43 1003.9
20260504033304 57 236 0.0 0.0 0.00 0.00 0.00 43 1004.0
20260504032804 57 236 0.0 0.0 0.00 0.00 0.00 42 1004.2
20260504032305 57 236 0.0 0.0 0.00 0.00 0.00 42 1004.2
20260504031804 57 236 0.0 2.0 0.00 0.00 0.00 42 1004.3
20260504031305 58 236 0.0 0.0 0.00 0.00 0.00 42 1004.4
20260504030804 58 236 0.0 0.0 0.00 0.00 0.00 41 1004.4
20260504030304 58 236 0.0 0.0 0.00 0.00 0.00 40 1004.4
20260504025804 59 236 0.0 0.0 0.00 0.00 0.00 39 1004.5
20260504025304 59 236 0.0 0.0 0.00 0.00 0.00 38 1004.5
20260504024804 60 236 0.0 0.0 0.00 0.00 0.00 38 1004.5
20260504024304 60 236 0.0 0.0 0.00 0.00 0.00 36 1004.6
20260504023805 61 236 0.0 0.0 0.00 0.00 0.00 36 1004.6
20260504023304 61 236 0.0 0.0 0.00 0.00 0.00 35 1004.6
20260504022804 62 236 0.0 0.0 0.00 0.00 0.00 35 1004.6
20260504022305 62 236 0.0 0.0 0.00 0.00 0.00 34 1004.7
20260504021305 62 214 1.0 2.0 0.00 0.00 0.00 34 1004.7
20260504020803 63 210 1.0 2.0 0.00 0.00 0.00 34 1004.8
20260504020305 63 250 2.0 3.0 0.00 0.00 0.00 33 1004.8
20260504015804 63 210 1.0 2.0 0.00 0.00 0.00 34 1004.8
20260504015304 63 198 0.0 2.0 0.00 0.00 0.00 32 1004.8
20260504014805 64 214 1.0 2.0 0.00 0.00 0.00 33 1004.7
20260504014304 64 217 1.0 1.0 0.00 0.00 0.00 31 1004.8
20260504013805 64 242 1.0 2.0 0.00 0.00 0.00 31 1004.8
20260504012304 65 203 1.0 2.0 0.00 0.00 0.00 29 1004.8
20260504011805 66 215 1.0 2.0 0.00 0.00 0.00 29 1004.9
20260504011305 66 208 1.0 2.0 0.00 0.00 0.00 29 1004.9
20260504010804 67 210 1.0 1.0 0.00 0.00 0.00 28 1004.9
20260504010304 67 174 1.0 3.0 0.00 0.00 0.00 27 1004.9
20260504005305 67 263 1.0 2.0 0.00 0.00 0.00 26 1005.0
20260504004303 68 187 2.0 3.0 0.00 0.00 0.00 25 1005.1
20260504003804 68 264 2.0 5.0 0.00 0.00 0.00 25 1005.2
20260504003305 68 256 1.0 5.0 0.00 0.00 0.00 25 1005.1
20260504002805 68 286 3.0 7.0 0.00 0.00 0.00 25 1005.2
20260504002304 69 262 2.0 7.0 0.00 0.00 0.00 24 1005.2
20260504001806 69 274 3.0 8.0 0.00 0.00 0.00 24 1005.3
20260504001305 69 331 3.0 15.0 0.00 0.00 0.00 25 1005.3
20260504000805 69 255 3.0 6.0 0.00 0.00 0.00 25 1005.3
20260504000304 69 280 3.0 8.0 0.00 0.00 0.00 25 1005.3
20260503235805 69 309 3.0 7.0 0.00 0.00 0.00 24 1005.4
20260503235305 70 286 2.0 8.0 0.00 0.00 0.00 24 1005.3
20260503234805 70 251 2.0 7.0 0.00 0.00 0.00 24 1005.3
20260503234304 70 244 4.0 8.0 0.00 0.00 0.00 24 1005.4
20260503233804 70 288 5.0 8.0 0.00 0.00 0.00 23 1005.3
20260503233304 71 278 3.0 8.0 0.00 0.00 0.00 24 1005.4
20260503232305 70 348 2.0 7.0 0.00 0.00 0.00 25 1005.4
20260503231804 71 269 5.0 10.0 0.00 0.00 0.00 24 1005.4
20260503231305 71 329 4.0 10.0 0.00 0.00 0.00 25 1005.5
20260503230805 71 244 2.0 7.0 0.00 0.00 0.00 24 1005.5
20260503230305 71 301 3.0 7.0 0.00 0.00 0.00 24 1005.6
20260503225305 71 351 4.0 9.0 0.00 0.00 0.00 23 1005.7
20260503224804 71 221 2.0 6.0 0.00 0.00 0.00 24 1005.8
20260503224304 71 230 5.0 8.0 0.00 0.00 0.00 23 1005.8
20260503223804 71 257 4.0 10.0 0.00 0.00 0.00 25 1005.9
20260503223304 71 258 2.0 8.0 0.00 0.00 0.00 23 1005.8
20260503222304 71 330 4.0 8.0 0.00 0.00 0.00 25 1005.9
20260503221804 71 302 3.0 7.0 0.00 0.00 0.00 25 1005.8
20260503221305 71 259 4.0 8.0 0.00 0.00 0.00 24 1005.9
20260503220304 70 272 5.0 9.0 0.00 0.00 0.00 24 1005.9
20260503215804 70 252 5.0 8.0 0.00 0.00 0.00 22 1006.0
20260503215304 70 313 5.0 9.0 0.00 0.00 0.00 23 1006.1
20260503214804 70 258 5.0 8.0 0.00 0.00 0.00 22 1006.1
20260503214305 70 263 6.0 12.0 0.00 0.00 0.00 23 1006.2
20260503213804 70 289 5.0 7.0 0.00 0.00 0.00 22 1006.1
20260503213304 70 316 5.0 13.0 0.00 0.00 0.00 25 1006.3
20260503212804 70 353 5.0 12.0 0.00 0.00 0.00 23 1006.4
20260503212305 71 239 5.0 9.0 0.00 0.00 0.00 24 1006.4
20260503211804 70 352 5.0 8.0 0.00 0.00 0.00 24 1006.3
20260503211304 71 258 5.0 9.0 0.00 0.00 0.00 23 1006.4
20260503210804 71 309 3.0 7.0 0.00 0.00 0.00 25 1006.3
20260503210305 70 299 2.0 8.0 0.00 0.00 0.00 27 1006.4
20260503205305 70 351 6.0 8.0 0.00 0.00 0.00 23 1006.6
20260503204804 70 24 4.0 12.0 0.00 0.00 0.00 26 1006.6
20260503204304 70 358 7.0 10.0 0.00 0.00 0.00 24 1006.6
20260503203804 70 341 9.0 12.0 0.00 0.00 0.00 21 1006.7
20260503203304 69 34 3.0 10.0 0.00 0.00 0.00 25 1006.7
20260503202804 69 345 6.0 10.0 0.00 0.00 0.00 24 1006.7
20260503202304 69 355 7.0 17.0 0.00 0.00 0.00 22 1006.8
20260503201804 70 319 5.0 13.0 0.00 0.00 0.00 25 1006.8
20260503201305 69 348 7.0 13.0 0.00 0.00 0.00 24 1006.8
20260503200804 69 0 5.0 10.0 0.00 0.00 0.00 26 1006.8
20260503200304 69 349 6.0 7.0 0.00 0.00 0.00 25 1006.9
20260503195804 69 358 8.0 13.0 0.00 0.00 0.00 25 1007.0
20260503195304 70 8 5.0 10.0 0.00 0.00 0.00 28 1007.0
20260503194804 69 344 3.0 8.0 0.00 0.00 0.00 29 1007.2
20260503194304 69 272 7.0 12.0 0.00 0.00 0.00 25 1007.2
20260503193304 68 341 8.0 13.0 0.00 0.00 0.00 26 1007.3
20260503192805 69 9 9.0 15.0 0.00 0.00 0.00 29 1007.4
20260503192305 68 2 10.0 22.0 0.00 0.00 0.00 27 1007.4
20260503191804 69 289 5.0 15.0 0.00 0.00 0.00 29 1007.3
20260503191305 68 9 12.0 16.0 0.00 0.00 0.00 27 1007.3
20260503190806 68 352 8.0 15.0 0.00 0.00 0.00 29 1007.4
20260503190304 68 320 6.0 10.0 0.00 0.00 0.00 29 1007.4
20260503185804 68 17 6.0 15.0 0.00 0.00 0.00 28 1007.3
20260503185305 68 12 10.0 17.0 0.00 0.00 0.00 26 1007.4
20260503184805 68 356 6.0 10.0 0.00 0.00 0.00 28 1007.4
20260503184304 68 353 6.0 16.0 0.00 0.00 0.00 27 1007.5
20260503183804 68 341 6.0 12.0 0.00 0.00 0.00 28 1007.5
20260503183304 68 317 9.0 13.0 0.00 0.00 0.00 26 1007.6
20260503182804 68 14 8.0 12.0 0.00 0.00 0.00 27 1007.6
20260503182305 68 350 9.0 17.0 0.00 0.00 0.00 26 1007.6
20260503181804 68 321 7.0 12.0 0.00 0.00 0.00 28 1007.7
20260503180805 67 321 5.0 16.0 0.00 0.00 0.00 31 1007.8
20260503180304 68 346 7.0 15.0 0.00 0.00 0.00 30 1007.7
20260503175804 67 347 5.0 9.0 0.00 0.00 0.00 35 1007.7
20260503174304 67 337 6.0 12.0 0.00 0.00 0.00 34 1007.8
20260503173804 67 3 7.0 15.0 0.00 0.00 0.00 35 1007.9
20260503173303 67 352 10.0 16.0 0.00 0.00 0.00 36 1008.0
20260503172305 67 288 5.0 9.0 0.00 0.00 0.00 38 1007.9
20260503171804 67 292 7.0 9.0 0.00 0.00 0.00 38 1007.9
20260503170804 67 0 9.0 13.0 0.00 0.00 0.00 40 1007.9
20260503170304 67 358 5.0 9.0 0.00 0.00 0.00 39 1007.9
20260503150805 63 15 6.0 8.0 0.00 0.00 0.00 44 1007.6
20260503150304 62 43 6.0 12.0 0.00 0.00 0.00 46 1007.7